| time (UTC) | temp F | wind direction | speed knots | gust knots | rain 1hr in | rain 24hr in | rain mn in | humidity % | barometer mb |
| 20260904183053 | 77 | 99 | 0.0 | 6.1 | 0.00 | 0.24 | 0.24 | 64 | 1002.5 |
| 20260904181612 | 78 | 127 | 0.0 | 1.7 | 0.00 | 0.24 | 0.24 | 67 | 1002.6 |
| 20260904180058 | 78 | 100 | 0.9 | 2.6 | 0.00 | 0.24 | 0.24 | 67 | 1002.6 |
| 20260904174603 | 78 | 299 | 0.9 | 5.2 | 0.00 | 0.24 | 0.24 | 61 | 1002.6 |
| 20260904173101 | 78 | 337 | 0.9 | 6.1 | 0.00 | 0.24 | 0.24 | 64 | 1002.5 |
| 20260904171621 | 77 | 318 | 0.9 | 5.2 | 0.00 | 0.24 | 0.24 | 63 | 1002.7 |
| 20260904164618 | 77 | 0 | 0.0 | 7.8 | 0.00 | 0.24 | 0.24 | 64 | 1002.6 |
| 20260904163112 | 77 | 337 | 0.9 | 8.7 | 0.00 | 0.24 | 0.24 | 65 | 1002.7 |
| 20260904161615 | 76 | 307 | 1.7 | 6.1 | 0.00 | 0.24 | 0.24 | 64 | 1002.9 |
| 20260904160103 | 76 | 349 | 2.6 | 9.6 | 0.00 | 0.24 | 0.24 | 66 | 1003.2 |
| 20260904154601 | 76 | 37 | 1.7 | 6.1 | 0.00 | 0.24 | 0.24 | 69 | 1003.1 |
| 20260904153109 | 75 | 0 | 0.9 | 7.0 | 0.00 | 0.24 | 0.24 | 74 | 1003.2 |
| 20260904151606 | 74 | 79 | 1.7 | 6.1 | 0.00 | 0.24 | 0.24 | 74 | 1003.4 |
| 20260904150107 | 73 | 326 | 0.9 | 7.0 | 0.00 | 0.24 | 0.24 | 82 | 1003.7 |
| 20260904144600 | 72 | 0 | 0.0 | 2.6 | 0.00 | 0.24 | 0.24 | 89 | 1003.6 |
| 20260904143101 | 71 | 0 | 0.9 | 3.5 | 0.00 | 0.24 | 0.24 | 89 | 1003.8 |
| 20260904141604 | 71 | 0 | 0.9 | 5.2 | 0.00 | 0.24 | 0.24 | 92 | 1003.5 |
| 20260904140056 | 70 | 100 | 1.7 | 8.7 | 0.00 | 0.24 | 0.24 | 95 | 1003.3 |
| 20260904134604 | 70 | 0 | 0.9 | 2.6 | 0.00 | 0.24 | 0.24 | 96 | 1003.1 |
| 20260904133102 | 70 | 0 | 0.0 | 2.6 | 0.00 | 0.24 | 0.24 | 96 | 1003.1 |
| 20260904131602 | 70 | 0 | 0.0 | 0.0 | 0.00 | 0.24 | 0.24 | 97 | 1003.2 |
| 20260904130100 | 69 | 0 | 0.0 | 0.0 | 0.00 | 0.24 | 0.24 | 97 | 1003.3 |
| 20260904124605 | 69 | 0 | 0.0 | 0.0 | 0.00 | 0.24 | 0.24 | 96 | 1003.4 |
| 20260904123103 | 69 | 0 | 0.0 | 0.0 | 0.00 | 0.24 | 0.24 | 96 | 1003.4 |
| 20260904121559 | 68 | 0 | 0.0 | 0.0 | 0.00 | 0.24 | 0.24 | 96 | 1003.4 |
| 20260904114604 | 68 | 0 | 0.0 | 0.0 | 0.00 | 0.24 | 0.24 | 96 | 1003.0 |
| 20260904113105 | 68 | 0 | 0.0 | 0.0 | 0.00 | 0.24 | 0.24 | 96 | 1002.9 |
| 20260904111601 | 68 | 0 | 0.0 | 0.0 | 0.00 | 0.24 | 0.24 | 96 | 1002.9 |
| 20260904110129 | 68 | 0 | 0.0 | 1.7 | 0.00 | 0.24 | 0.24 | 95 | 1002.7 |
| 20260904104614 | 68 | 0 | 0.0 | 3.5 | 0.00 | 0.24 | 0.24 | 95 | 1002.6 |
| 20260904103100 | 68 | 0 | 0.0 | 1.7 | 0.00 | 0.24 | 0.24 | 95 | 1002.4 |
| 20260904101605 | 68 | 0 | 0.0 | 0.0 | 0.00 | 0.24 | 0.24 | 95 | 1002.5 |
| 20260904100118 | 68 | 0 | 0.0 | 0.0 | 0.00 | 0.24 | 0.24 | 95 | 1002.4 |
| 20260904094615 | 69 | 0 | 0.0 | 0.0 | 0.00 | 0.24 | 0.24 | 95 | 1002.2 |
| 20260904093107 | 69 | 0 | 0.0 | 0.0 | 0.00 | 0.24 | 0.24 | 95 | 1002.2 |
| 20260904091606 | 69 | 0 | 0.0 | 0.0 | 0.00 | 0.24 | 0.24 | 95 | 1002.0 |
| 20260904090103 | 69 | 0 | 0.0 | 0.0 | 0.01 | 0.24 | 0.24 | 95 | 1002.1 |
| 20260904084603 | 69 | 0 | 0.0 | 0.0 | 0.01 | 0.24 | 0.24 | 95 | 1002.0 |
| 20260904083102 | 70 | 0 | 0.0 | 0.0 | 0.01 | 0.24 | 0.24 | 95 | 1001.8 |
| 20260904081558 | 70 | 0 | 0.9 | 4.3 | 0.03 | 0.24 | 0.24 | 95 | 1001.5 |
| 20260904080125 | 70 | 293 | 1.7 | 5.2 | 0.06 | 0.23 | 0.23 | 94 | 1001.5 |
| 20260904074609 | 70 | 0 | 0.0 | 0.0 | 0.12 | 0.26 | 0.23 | 94 | 1001.6 |
| 20260904073058 | 70 | 0 | 0.0 | 1.7 | 0.20 | 0.26 | 0.23 | 93 | 1001.6 |
| 20260904071604 | 71 | 326 | 0.0 | 1.7 | 0.19 | 0.24 | 0.21 | 93 | 1001.6 |
| 20260904070057 | 71 | 0 | 0.0 | 3.5 | 0.16 | 0.20 | 0.17 | 93 | 1002.0 |
| 20260904064604 | 71 | 0 | 0.0 | 3.5 | 0.11 | 0.16 | 0.11 | 92 | 1002.4 |
| 20260904063053 | 72 | 0 | 0.0 | 0.0 | 0.03 | 0.08 | 0.03 | 92 | 1002.7 |
| 20260904061558 | 72 | 0 | 0.0 | 0.0 | 0.02 | 0.07 | 0.02 | 90 | 1002.6 |
| 20260904060119 | 73 | 0 | 0.0 | 0.0 | 0.01 | 0.06 | 0.01 | 89 | 1002.5 |
| 20260904054601 | 73 | 0 | 0.0 | 0.0 | 0.00 | 0.08 | 0.00 | 88 | 1002.5 |
| 20260904053148 | 74 | 0 | 0.0 | 1.7 | 0.00 | 0.08 | 0.00 | 88 | 1002.6 |
| 20260904051608 | 74 | 0 | 0.0 | 5.2 | 0.00 | 0.08 | 0.00 | 87 | 1002.8 |
| 20260904050103 | 73 | 312 | 0.9 | 5.2 | 0.00 | 0.08 | 0.00 | 87 | 1002.7 |
| 20260904044604 | 73 | 318 | 1.7 | 3.5 | 0.00 | 0.25 | 0.00 | 87 | 1002.6 |
| 20260904043114 | 74 | 293 | 0.0 | 1.7 | 0.00 | 0.25 | 0.00 | 87 | 1002.7 |
| 20260904041607 | 74 | 0 | 0.0 | 5.2 | 0.00 | 0.25 | 0.00 | 87 | 1002.8 |
| 20260904034601 | 73 | 360 | 1.7 | 5.2 | 0.00 | 0.34 | 0.25 | 89 | 1003.1 |
| 20260904033106 | 72 | 297 | 0.0 | 3.5 | 0.00 | 0.34 | 0.25 | 90 | 1003.1 |
| 20260904031600 | 72 | 0 | 0.0 | 0.0 | 0.00 | 0.34 | 0.25 | 90 | 1003.0 |
| 20260904030103 | 72 | 0 | 0.0 | 0.0 | 0.00 | 0.34 | 0.25 | 89 | 1003.2 |
| 20260904024620 | 73 | 0 | 0.0 | 0.0 | 0.00 | 0.34 | 0.25 | 88 | 1003.5 |
| 20260904023107 | 74 | 0 | 0.0 | 0.0 | 0.00 | 0.34 | 0.25 | 87 | 1003.9 |
| 20260904021600 | 74 | 0 | 0.0 | 0.0 | 0.00 | 0.34 | 0.25 | 86 | 1003.5 |
| 20260904020056 | 74 | 0 | 0.0 | 3.5 | 0.00 | 0.34 | 0.25 | 85 | 1003.3 |
| 20260904014609 | 74 | 0 | 1.7 | 4.3 | 0.00 | 0.34 | 0.25 | 86 | 1003.9 |
| 20260904013054 | 73 | 288 | 0.9 | 3.5 | 0.00 | 0.34 | 0.25 | 88 | 1003.8 |
| 20260904011556 | 73 | 0 | 0.9 | 2.6 | 0.00 | 0.34 | 0.25 | 88 | 1003.7 |
| 20260904010104 | 73 | 0 | 0.0 | 1.7 | 0.00 | 0.34 | 0.25 | 88 | 1003.5 |
| 20260904004558 | 73 | 0 | 0.0 | 2.6 | 0.00 | 0.34 | 0.25 | 88 | 1003.7 |
| 20260904003055 | 73 | 360 | 0.9 | 2.6 | 0.00 | 0.34 | 0.25 | 87 | 1003.5 |
| 20260904001601 | 74 | 0 | 0.0 | 1.7 | 0.00 | 0.34 | 0.25 | 87 | 1003.4 |
| 20260904000115 | 74 | 0 | 0.0 | 1.7 | 0.00 | 0.34 | 0.25 | 87 | 1003.2 |
| 20260903234559 | 75 | 0 | 0.0 | 2.6 | 0.00 | 0.34 | 0.25 | 86 | 1003.0 |
| 20260903233118 | 75 | 0 | 0.0 | 2.6 | 0.00 | 0.34 | 0.25 | 85 | 1003.0 |
| 20260903231553 | 76 | 0 | 0.0 | 1.7 | 0.00 | 0.34 | 0.25 | 85 | 1002.9 |
| 20260903230109 | 77 | 0 | 0.0 | 1.7 | 0.00 | 0.34 | 0.25 | 84 | 1002.9 |
| 20260903224618 | 77 | 0 | 0.0 | 0.0 | 0.00 | 0.35 | 0.25 | 84 | 1002.9 |
| 20260903223135 | 78 | 0 | 0.0 | 0.0 | 0.00 | 0.35 | 0.25 | 83 | 1002.9 |
| 20260903221559 | 79 | 0 | 0.0 | 0.0 | 0.00 | 0.35 | 0.25 | 82 | 1003.0 |
| 20260903220057 | 79 | 0 | 0.0 | 0.0 | 0.00 | 0.35 | 0.25 | 82 | 1002.8 |
| 20260903214603 | 80 | 0 | 0.0 | 0.0 | 0.00 | 0.35 | 0.25 | 81 | 1003.0 |
| 20260903213108 | 80 | 263 | 0.0 | 1.7 | 0.00 | 0.35 | 0.25 | 80 | 1003.1 |
| 20260903211557 | 81 | 0 | 0.0 | 0.0 | 0.00 | 0.35 | 0.25 | 80 | 1002.9 |
| 20260903210119 | 81 | 0 | 0.0 | 0.0 | 0.00 | 0.35 | 0.25 | 78 | 1002.9 |
| 20260903204556 | 82 | 0 | 0.0 | 0.0 | 0.00 | 0.35 | 0.25 | 79 | 1002.9 |
| 20260903203058 | 82 | 0 | 0.0 | 0.0 | 0.00 | 0.35 | 0.25 | 78 | 1002.7 |
| 20260903201558 | 82 | 0 | 0.0 | 4.3 | 0.00 | 0.35 | 0.25 | 74 | 1002.9 |
| 20260903194600 | 82 | 0 | 0.0 | 1.7 | 0.00 | 0.35 | 0.25 | 75 | 1003.1 |
| 20260903193102 | 81 | 0 | 0.0 | 2.6 | 0.00 | 0.35 | 0.25 | 76 | 1003.2 |
| 20260903191600 | 81 | 0 | 0.9 | 3.5 | 0.00 | 0.35 | 0.25 | 74 | 1003.3 |
| 20260903190107 | 81 | 0 | 0.9 | 3.5 | 0.00 | 0.35 | 0.25 | 76 | 1003.4 |
| 20260903184559 | 80 | 0 | 0.0 | 3.5 | 0.00 | 0.40 | 0.25 | 78 | 1003.6 |